SKG793 CYOO-CYKF

Flight info

Callsign SKG793
Flight time N/A
Altitude 8000
Route DCT
Aircraft RJ1H/M-SDFGIRWY/LB1

Departure

Time 2026-04-25 01:45
Airport Oshawa Executive Airport (CYOO)

Arrival

Time N/A
Airport Region of Waterloo International Airport (CYKF)
Time Latitude Longitude Altitude Speed Heading
2026-04-25 01:33 43.92501 -78.90160 466 ft 0 kts 16°
2026-04-25 01:43 43.92508 -78.90161 461 ft 6 kts 338°
2026-04-25 01:44 43.92497 -78.90270 466 ft 16 kts 292°
2026-04-25 01:44 43.92439 -78.90352 464 ft 12 kts 152°
2026-04-25 01:44 43.92408 -78.90247 465 ft 34 kts 111°
2026-04-25 01:44 43.92219 -78.89569 461 ft 115 kts 111°
2026-04-25 01:45 43.91879 -78.88334 721 ft 157 kts 110°
2026-04-25 01:45 43.91418 -78.86758 1241 ft 192 kts 115°
2026-04-25 01:45 43.90516 -78.85269 2110 ft 217 kts 142°
2026-04-25 01:45 43.88968 -78.84772 2875 ft 252 kts 182°
2026-04-25 01:46 43.87344 -78.86020 3188 ft 301 kts 226°
2026-04-25 01:46 43.86836 -78.87209 3442 ft 312 kts 246°
2026-04-25 01:46 43.86482 -78.89722 4245 ft 317 kts 269°
2026-04-25 01:46 43.86663 -78.92724 5425 ft 307 kts 276°
2026-04-25 01:47 43.86910 -78.95621 6695 ft 295 kts 277°
2026-04-25 01:47 43.87151 -78.98367 7588 ft 280 kts 276°
2026-04-25 01:47 43.87232 -79.01006 8107 ft 281 kts 270°
2026-04-25 01:47 43.87018 -79.03796 8063 ft 300 kts 260°
2026-04-25 01:48 43.86534 -79.06650 8062 ft 301 kts 257°
2026-04-25 01:48 43.85986 -79.09444 8071 ft 299 kts 254°
2026-04-25 01:48 43.85335 -79.12147 8067 ft 301 kts 251°
2026-04-25 01:48 43.84588 -79.14887 8070 ft 301 kts 250°
2026-04-25 01:49 43.83808 -79.17554 8072 ft 297 kts 249°
2026-04-25 01:49 43.83030 -79.20148 8071 ft 294 kts 248°
2026-04-25 01:49 43.82217 -79.22746 8051 ft 292 kts 248°
2026-04-25 01:49 43.81413 -79.25317 8048 ft 290 kts 248°
2026-04-25 01:50 43.80626 -79.27885 8046 ft 288 kts 248°
2026-04-25 01:50 43.79840 -79.30442 8034 ft 288 kts 248°
2026-04-25 01:50 43.79055 -79.32966 8034 ft 291 kts 248°
2026-04-25 01:50 43.78258 -79.35544 8033 ft 292 kts 248°
2026-04-25 01:51 43.77447 -79.38115 8029 ft 290 kts 248°
2026-04-25 01:51 43.76683 -79.40588 8035 ft 288 kts 248°
2026-04-25 01:51 43.75871 -79.43201 8025 ft 287 kts 248°
2026-04-25 01:51 43.75077 -79.45735 8019 ft 286 kts 248°
2026-04-25 01:52 43.74288 -79.48258 8022 ft 285 kts 248°
2026-04-25 01:52 43.73507 -79.50775 8022 ft 285 kts 248°
2026-04-25 01:52 43.72730 -79.53267 8019 ft 286 kts 248°
2026-04-25 01:52 43.71942 -79.55796 8024 ft 286 kts 248°
2026-04-25 01:53 43.71156 -79.58322 8019 ft 286 kts 248°
2026-04-25 01:53 43.70371 -79.60837 8029 ft 285 kts 248°
2026-04-25 01:53 43.69585 -79.63352 8023 ft 284 kts 248°
2026-04-25 01:53 43.68803 -79.65859 8026 ft 283 kts 248°
2026-04-25 01:54 43.68023 -79.68361 8026 ft 283 kts 248°
2026-04-25 01:54 43.67245 -79.70858 8025 ft 282 kts 248°
2026-04-25 01:54 43.66478 -79.73325 8021 ft 282 kts 248°
2026-04-25 01:54 43.65702 -79.75818 8022 ft 282 kts 248°
2026-04-25 01:55 43.64927 -79.78310 8027 ft 282 kts 248°
2026-04-25 01:55 43.64155 -79.80798 8031 ft 281 kts 248°
2026-04-25 01:55 43.63393 -79.83256 8033 ft 281 kts 248°
2026-04-25 01:55 43.62622 -79.85744 8027 ft 281 kts 248°
2026-04-25 01:56 43.61851 -79.88231 8027 ft 281 kts 248°
2026-04-25 01:56 43.61073 -79.90704 8028 ft 281 kts 247°
2026-04-25 01:56 43.60283 -79.93177 8025 ft 280 kts 248°
2026-04-25 01:56 43.59512 -79.95610 8029 ft 280 kts 248°
2026-04-25 01:57 43.57957 -80.00555 8020 ft 280 kts 248°
2026-04-25 01:57 43.57174 -80.03021 8029 ft 280 kts 248°
2026-04-25 01:57 43.56397 -80.05486 8020 ft 280 kts 248°
2026-04-25 01:58 43.55626 -80.07950 8014 ft 279 kts 251°
2026-04-25 01:58 43.55338 -80.10538 8018 ft 277 kts 269°
2026-04-25 01:58 43.55276 -80.13181 8016 ft 269 kts 268°
2026-04-25 01:58 43.55184 -80.15702 8008 ft 257 kts 267°
2026-04-25 01:59 43.55094 -80.18132 7973 ft 252 kts 267°
2026-04-25 01:59 43.54995 -80.20567 7761 ft 257 kts 267°
2026-04-25 01:59 43.54884 -80.23071 7448 ft 264 kts 266°
2026-04-25 01:59 43.54747 -80.25611 7158 ft 267 kts 266°
2026-04-25 02:00 43.54631 -80.28156 6717 ft 272 kts 268°
2026-04-25 02:00 43.54510 -80.30784 6182 ft 276 kts 265°
2026-04-25 02:00 43.54244 -80.33418 5656 ft 279 kts 261°
2026-04-25 02:00 43.53807 -80.36031 5140 ft 280 kts 255°
2026-04-25 02:01 43.53202 -80.38598 4616 ft 281 kts 250°
2026-04-25 02:01 43.52440 -80.41085 4109 ft 282 kts 245°
2026-04-25 02:01 43.51547 -80.43444 3701 ft 279 kts 239°
2026-04-25 02:01 43.50767 -80.45851 3523 ft 271 kts 255°
2026-04-25 02:02 43.50407 -80.48333 3556 ft 258 kts 256°
2026-04-25 02:02 43.50015 -80.50737 3320 ft 259 kts 253°
2026-04-25 02:02 43.49541 -80.53138 3093 ft 260 kts 251°
2026-04-25 02:02 43.48993 -80.55531 2956 ft 260 kts 249°
2026-04-25 02:03 43.48398 -80.57820 2978 ft 253 kts 243°
2026-04-25 02:03 43.47284 -80.59552 2982 ft 239 kts 205°
2026-04-25 02:03 43.45710 -80.59869 3015 ft 227 kts 169°
2026-04-25 02:03 43.44202 -80.59317 3053 ft 221 kts 163°
2026-04-25 02:04 43.42759 -80.58602 3068 ft 220 kts 159°
2026-04-25 02:04 43.41419 -80.57638 3057 ft 221 kts 140°
2026-04-25 02:04 43.40424 -80.55964 3389 ft 240 kts 131°
2026-04-25 02:04 43.39363 -80.54018 3933 ft 258 kts 129°
2026-04-25 02:05 43.38309 -80.52026 4023 ft 257 kts 128°
2026-04-25 02:05 43.37276 -80.49978 3964 ft 266 kts 126°
2026-04-25 02:05 43.36336 -80.48052 3844 ft 277 kts 130°
2026-04-25 02:05 43.34729 -80.46416 3881 ft 276 kts 164°
2026-04-25 02:06 43.32896 -80.45756 3915 ft 270 kts 169°
2026-04-25 02:06 43.31059 -80.45274 3926 ft 263 kts 183°
2026-04-25 02:06 43.29377 -80.45990 3927 ft 252 kts 218°
2026-04-25 02:06 43.28358 -80.47848 3943 ft 249 kts 252°
2026-04-25 02:07 43.28302 -80.50202 3977 ft 251 kts 285°
2026-04-25 02:07 43.29263 -80.52204 4003 ft 258 kts 319°
2026-04-25 02:07 43.30912 -80.53166 3996 ft 263 kts 351°
2026-04-25 02:07 43.32723 -80.52848 3999 ft 263 kts 12°
2026-04-25 02:08 43.34483 -80.52424 3987 ft 257 kts 358°
2026-04-25 02:08 43.36158 -80.52976 3981 ft 245 kts 324°
2026-04-25 02:08 43.37532 -80.54336 3984 ft 242 kts 323°
2026-04-25 02:08 43.39154 -80.54952 3971 ft 250 kts
2026-04-25 02:09 43.40756 -80.54031 3977 ft 255 kts 40°
2026-04-25 02:09 43.41745 -80.52060 4056 ft 251 kts 65°
2026-04-25 02:09 43.42415 -80.49855 4074 ft 253 kts 68°
2026-04-25 02:09 43.43085 -80.47542 3820 ft 261 kts 69°
2026-04-25 02:10 43.43746 -80.45267 3632 ft 253 kts 69°
2026-04-25 02:10 43.44438 -80.42947 2777 ft 266 kts 69°
2026-04-25 02:10 43.45205 -80.40719 1786 ft 252 kts 65°